Slidell, LA

9:34 AM CST on February 08, 2016 (GMT -0600)
Slidell

Weather History for KASD - June, 2013

Change the Weather History Date:

Wednesday, June 26, 2013

  Actual Average (KNEW) Record (KNEW)
Temperature  
Mean Temperature 82 °F 82 °F  
Max Temperature 93 °F 90 °F 98 °F (2012)
Min Temperature 73 °F 75 °F 66 °F (1966)
Degree Days  
Heating Degree Days 0 0  
Month to date heating degree days 0  
Since 1 June heating degree days 0  
Since 1 July heating degree days 1280  
Cooling Degree Days 17 18  
Month to date cooling degree days 423  
Year to date cooling degree days 1042  
Since 1 June cooling degree days 423  
Growing Degree Days 32 (Base 50)    
Moisture  
Dew Point 75 °F    
Average Humidity 77    
Maximum Humidity 97    
Minimum Humidity 48    
Precipitation  
Precipitation 0.00 in 0.26 in 3.28 in (1999)
Month to date precipitation 7.03  
Year to date precipitation 31.27  
Snow  
Snow 0.00 in - - ()
Month to date snowfall  
Since 1 June snowfall  
Since 1 July snowfall  
Snow Depth -    
Sea Level Pressure  
Sea Level Pressure 30.01 in    
Wind  
Wind Speed 2 mph (SSW)    
Max Wind Speed 10 mph    
Max Gust Speed -    
Visibility 10 miles    
Events Thunderstorm    
T = Trace of Precipitation, MM = Missing Value Source: NWS Daily Summary

Daily Weather History Graph

Daily Weather History Graph

Search for Another Location

Airport or City:

Trip Planner

Search our weather history database for the weather conditions in past years. The results will help you decide how hot, cold, wet, or windy it might be!

Date:

Astronomy

Jun. 26, 2013 Rise Set
Actual Time 5:59 AM CDT 8:05 PM CDT
Civil Twilight 5:31 AM CDT 8:32 PM CDT
Nautical Twilight 4:58 AM CDT 9:06 PM CDT
Astronomical Twilight 4:22 AM CDT 9:42 PM CDT
Moon 10:47 PM CDT (6/26) 9:34 AM CDT (6/26)
Length of Visible Light 15h 00m
Length of Day
14h 05m
Waning Gibbous, 85% of the Moon is Illuminated
Jun 26
Waning Gibbous
Jun 29
Last Quarter
Jul 8
New
Jul 15
First Quarter
Jul 22
Full

Hourly Weather History & Observations

Time (CDT) Temp. Heat Index Dew Point Humidity Pressure Visibility Wind Dir Wind Speed Gust Speed Precip Events Conditions
12:53 AM 80.1 °F 85.1 °F 75.0 °F 85% 30.02 in 10.0 mi Calm Calm - N/A   Clear
1:53 AM 77.0 °F - 75.0 °F 94% 30.01 in 10.0 mi Calm Calm - N/A   Clear
2:53 AM 75.9 °F - 73.9 °F 94% 29.99 in 10.0 mi Calm Calm - N/A   Clear
3:53 AM 75.0 °F - 73.9 °F 96% 30.00 in 10.0 mi Calm Calm - N/A   Clear
4:53 AM 73.9 °F - 73.0 °F 97% 30.01 in 10.0 mi Calm Calm - N/A   Clear
5:53 AM 73.0 °F - 72.0 °F 96% 30.02 in 10.0 mi Calm Calm - N/A   Clear
6:53 AM 75.0 °F - 73.0 °F 94% 30.04 in 10.0 mi Calm Calm - N/A   Clear
7:53 AM 82.9 °F 92.8 °F 78.1 °F 85% 30.05 in 10.0 mi Calm Calm - N/A   Clear
8:32 AM 84.2 °F 94.1 °F 77.0 °F 79% 30.05 in 10.0 mi WSW 3.5 mph - N/A Thunderstorm Partly Cloudy
8:53 AM 86.0 °F 96.0 °F 75.9 °F 72% 30.06 in 10.0 mi South 6.9 mph - N/A   Partly Cloudy
9:53 AM 84.9 °F 94.1 °F 75.9 °F 74% 30.06 in 10.0 mi North 6.9 mph - N/A   Scattered Clouds
10:53 AM 87.1 °F 97.3 °F 75.9 °F 69% 30.06 in 10.0 mi Variable 3.5 mph - N/A   Clear
11:53 AM 88.0 °F 97.5 °F 75.0 °F 65% 30.06 in 10.0 mi NNW 4.6 mph - N/A   Mostly Cloudy
12:53 PM 90.0 °F 99.0 °F 73.9 °F 59% 30.04 in 10.0 mi Variable 4.6 mph - N/A   Partly Cloudy
1:53 PM 91.9 °F 98.4 °F 71.1 °F 50% 30.03 in 10.0 mi Variable 4.6 mph - N/A   Partly Cloudy
2:53 PM 91.9 °F 97.4 °F 70.0 °F 48% 30.01 in 10.0 mi South 5.8 mph - N/A   Clear
3:53 PM 91.9 °F 98.4 °F 71.1 °F 50% 29.99 in 10.0 mi SSW 8.1 mph - N/A   Clear
4:53 PM 91.0 °F 98.2 °F 72.0 °F 53% 29.99 in 10.0 mi SSW 9.2 mph - N/A   Clear
5:53 PM 88.0 °F 98.5 °F 75.9 °F 67% 29.97 in 10.0 mi South 10.4 mph - N/A   Clear
6:53 PM 88.0 °F 98.5 °F 75.9 °F 67% 29.97 in 10.0 mi South 9.2 mph - N/A   Clear
7:53 PM 84.9 °F 95.3 °F 77.0 °F 77% 29.97 in 10.0 mi SSE 5.8 mph - N/A   Clear
8:53 PM 82.9 °F 91.8 °F 77.0 °F 82% 29.97 in 10.0 mi Calm Calm - N/A   Clear
9:53 PM 82.9 °F 91.8 °F 77.0 °F 82% 29.98 in 10.0 mi SSW 3.5 mph - N/A   Clear
10:53 PM 79.0 °F - 77.0 °F 94% 30.00 in 10.0 mi Calm Calm - N/A   Clear
11:53 PM 79.0 °F - 77.0 °F 94% 30.01 in 10.0 mi Calm Calm - N/A   Clear